Weather History for KDDC - November, 2012

Change the Weather History Date:

Monday, November 5, 2012

  Actual Average Record
Temperature  
Mean Temperature 50 °F -  
Max Temperature 60 °F 58 °F 86 °F (1924)
Min Temperature 39 °F 33 °F 16 °F (1959)
Degree Days  
Heating Degree Days 16    
Moisture  
Dew Point 32 °F    
Average Humidity 49    
Maximum Humidity 70    
Minimum Humidity 20    
Precipitation  
Precipitation 0.00 in - - ()
Sea Level Pressure  
Sea Level Pressure 30.13 in    
Wind  
Wind Speed 12 mph (NNW)    
Max Wind Speed 22 mph    
Max Gust Speed 30 mph    
Visibility 10 miles    
Events      
Averages and records for this station are not official NWS values.
T = Trace of Precipitation, MM = Missing Value Source: NWS Daily Summary

Daily Weather History Graph

Daily Weather History Graph

Search for Another Location

Airport or City:

Trip Planner

Search our weather history database for the weather conditions in past years. The results will help you decide how hot, cold, wet, or windy it might be!

Date:

Astronomy

Nov. 05, 2012 Rise Set
Actual Time 7:09 AM CST 5:36 PM CST
Civil Twilight 6:42 AM CST 6:03 PM CST
Nautical Twilight 6:11 AM CST 6:35 PM CST
Astronomical Twilight 5:40 AM CST 7:05 PM CST
Moon 11:15 PM CST (11/5) 12:30 PM CST (11/5)
Length of Visible Light 11h 21m
Length of Day
10h 26m
Waning Gibbous, 62% of the Moon is Illuminated
Nov 5
Waning Gibbous
Nov 6
Last Quarter
Nov 13
New
Nov 20
First Quarter
Nov 28
Full

Hourly Weather History & Observations

Time (CST) Temp. Windchill Dew Point Humidity Pressure Visibility Wind Dir Wind Speed Gust Speed Precip Events Conditions
12:52 AM 50.0 °F - 32.0 °F 50% 30.12 in 10.0 mi WNW 9.2 mph - N/A   Mostly Cloudy
1:52 AM 50.0 °F - 30.9 °F 48% 30.13 in 10.0 mi NW 9.2 mph - N/A   Mostly Cloudy
2:52 AM 48.9 °F - 30.9 °F 50% 30.13 in 10.0 mi NW 9.2 mph - N/A   Scattered Clouds
3:52 AM 48.9 °F - 33.1 °F 54% 30.12 in 10.0 mi NW 10.4 mph - N/A   Scattered Clouds
4:52 AM 51.1 °F - 35.1 °F 54% 30.13 in 10.0 mi NNW 15.0 mph 24.2 mph N/A   Overcast
5:52 AM 48.9 °F - 34.0 °F 56% 30.16 in 10.0 mi NNW 12.7 mph - N/A   Overcast
6:52 AM 46.9 °F - 33.1 °F 59% 30.16 in 10.0 mi NNW 15.0 mph - N/A   Mostly Cloudy
7:52 AM 46.0 °F 39.0 °F 34.0 °F 63% 30.18 in 10.0 mi North 17.3 mph - N/A   Clear
8:52 AM 48.0 °F - 34.0 °F 58% 30.19 in 10.0 mi North 21.9 mph 29.9 mph N/A   Clear
9:52 AM 51.1 °F - 35.1 °F 54% 30.20 in 10.0 mi North 20.7 mph 27.6 mph N/A   Clear
10:52 AM 54.0 °F - 34.0 °F 47% 30.19 in 10.0 mi North 20.7 mph 25.3 mph N/A   Clear
11:52 AM 55.0 °F - 34.0 °F 45% 30.18 in 10.0 mi North 18.4 mph 26.5 mph N/A   Clear
12:52 PM 57.0 °F - 33.1 °F 40% 30.15 in 10.0 mi North 17.3 mph 24.2 mph N/A   Clear
1:52 PM 57.9 °F - 30.9 °F 36% 30.13 in 10.0 mi North 12.7 mph 23.0 mph N/A   Clear
2:52 PM 59.0 °F - 28.9 °F 32% 30.12 in 10.0 mi NNW 13.8 mph 25.3 mph N/A   Clear
3:52 PM 57.9 °F - 30.0 °F 35% 30.10 in 10.0 mi North 9.2 mph - N/A   Clear
4:52 PM 55.9 °F - 28.9 °F 36% 30.10 in 10.0 mi North 9.2 mph - N/A   Clear
5:52 PM 46.9 °F - 28.9 °F 50% 30.11 in 10.0 mi ENE 9.2 mph - N/A   Clear
6:52 PM 46.0 °F 44.8 °F 28.9 °F 51% 30.11 in 10.0 mi East 3.5 mph - N/A   Clear
7:52 PM 44.1 °F 40.8 °F 30.0 °F 58% 30.13 in 10.0 mi SSE 5.8 mph - N/A   Clear
8:52 PM 42.1 °F 38.4 °F 30.0 °F 62% 30.12 in 10.0 mi SE 5.8 mph - N/A   Clear
9:52 PM 41.0 °F 36.4 °F 30.0 °F 65% 30.10 in 10.0 mi South 6.9 mph - N/A   Clear
10:52 PM 39.2 °F 34.2 °F 30.2 °F 70% 30.09 in 10.0 mi South 6.9 mph - N/A   Clear
11:52 PM 39.0 °F 33.4 °F 30.0 °F 70% 30.10 in 10.0 mi SSW 8.1 mph - N/A   Clear